World > North America > United States > Georgia > Ashburn  

Ashburn, GA Hourly Weather Updates

Feedback E-mail the Weather

Quick Clicks

Ashburn, GA Weather Maps

°F °C°F °C
Ashburn Weather Map
UTC Time: 7/24/2024, 15:41
Your Time:

Ashburn, GA Regional Weather

Expires:202407241600;;219646
ASUS42 KFFC 241510
RWRGA 
WEATHER ROUNDUP FOR GEORGIA
NATIONAL WEATHER SERVICE PEACHTREE CITY GA
1100 AM EDT WED JUL 24 2024

NOTE: "FAIR" INDICATES FEW OR NO CLOUDS BELOW 12,000 FEET WITH NO
SIGNIFICANT WEATHER AND/OR OBSTRUCTIONS TO VISIBILITY. 

* = USE WITH CAUTION. THE STATIONS MARKED WITH AN ASTERISK MAY NOT
REPORT WEATHER SUCH AS PRECIPITATION, FOG, OR THUNDER AND ARE NOT 
QUALITY CONTROLLED BY NWS.

THE REMARK "TC" DENOTES TEMPERATURE READING IN DEGREES CELSIUS.


GAZ099>101-110>166-241600-
SOUTH GEORGIA
  
CITY           SKY/WX    TMP DP  RH WIND       PRES   REMARKS
SAVANNAH       PTSUNNY   87  75  67 VRB6      30.21R HX  96  TC  31   
VALDOSTA       FAIR      88  76  67 S9        30.20S HX  99  TC  31   
ALMA           FAIR      87  74  64 CALM      30.21R HX  95  TC  31   
ST SIMONS      FAIR      86  79  79 S8G15     30.21R HX  99  TC  30   
FT STEWART     PTSUNNY   87  76  71 SE5       30.17R HX  97  TC  30   
ALBANY         FAIR      86  76  71 SE6       30.20S HX  96  TC  30   
HUNTER AFB     MOSUNNY   88  74  64 S8        30.18R HX  97  TC  31   
MOODY AFB      PTSUNNY   87  76  70 SW7       30.19R HX  96  TC  30   
BRUNSWICK      FAIR      89  75  64 SW6       30.21S HX  98  TC  31   

  
CITY           SKY/WX    TMP DP  RH WIND       PRES   REMARKS
BAINBRIDGE*      N/A     88  76  67 E6        30.18S HX  98  TC  31   
MOULTRIE*      FAIR      85  78  81 VRB3      30.20S HX  96  TC  29   
VIDALIA*       FAIR      88  75  66 SW3       30.21R HX  97  TC  31   
WAYCROSS*      FAIR      87  77  72 S6        30.21S HX  98  TC  31   
DOUGLAS*       FAIR      86  74  69 SE3       30.22S HX  94  TC  30   
$$
  

SKY/WX - Weather  TMP - Temperature  DP - Dew Point  RH - Humidity
WIND - Wind Direction/Speed PRES - Barometric Pressure VSB - Visibility
WCI - Wind Chill Index E13G22 Wind - East Wind 13 mph/Gusts of 22 mph

Trending Headlines

Trending Entertainment Headlines

Ashburn Radar Loop

Use the map search tool if you want to place a location marker on the radar map...

Ashburn Quick Facts

National Two Day Weather Forecast


E-mail the Ashburn Weather Forecast

Voice your opinion or tell us about page issues...